Regional Weather Roundup
Issued by NWS New Orleans/Baton Rouge, LA

Home | Current Version | Previous Version | Text Only | Print | Product List | Glossary Off
Versions: 1 2 3 4 5 6 7 8 9 10 11 12 13 14 15 16 17 18 19 20 21 22 23 24 25 26 27 28 29 30 31 32 33 34 35 36 37 38 39 40 41 42 43 44 45 46 47 48 49 50

901
ASUS44 KLIX 201405
RWRLIX
NEW ORLEANS REGIONAL WEATHER ROUNDUP
NATIONAL WEATHER SERVICE NEW ORLEANS LA
900 AM CDT MON OCT 20 2014

NOTE: "FAIR" INDICATES FEW OR NO CLOUDS BELOW 12,000 FEET WITH NO
      SIGNIFICANT WEATHER AND/OR OBSTRUCTIONS TO VISIBILITY.
      SKY/WX - SKY CONDITION AND SIGNIFICANT WEATHER.
      TMP - AIR TEMPERATURE.     DP    - DEWPOINT TEMPERATURE.
      RH  - RELATIVE HUMIDITY.   PRES  - PRESSURE.
      HI  - HEAT INDEX.          WCI   - WIND CHILL INDEX.

*  THESE STATIONS ARE NOT NWS OR FAA STATIONS AND ARE NOT UNDER
   NWS QUALITY CONTROL.

LAZ038-040-048-061>063-065>067-069-201500-
SOUTHEAST LOUISIANA

CITY           SKY/WX    TMP DP  RH WIND       PRES   REMARKS
N.O. AUDUBON     N/A     71  61  69 MISG        N/A
N.O. INTL ARPT MOSUNNY   70  60  70 NE9       30.06R
N.O. LAKEFRONT SUNNY     69  55  60 NE12      30.06S
N.O. DOWNTOWN*   N/A     66  54  63 N5        30.06S
SLIDELL        SUNNY     59  52  77 N3        30.07R
BATON ROUGE    MOSUNNY   58  51  78 NE3       30.08R
BOOTHVILLE     SUNNY     75  63  66 E3        30.05R
BELLE CHASSE   SUNNY     69  58  67 NE5       30.05R
BOGALUSA*        N/A     56  50  79 CALM      30.10R
NEW ROADS*       N/A     60  53  78 CALM      30.08S
GONZALES*        N/A     60  57  91 N3        30.07R
HAMMOND*       SUNNY     63  50  63 CALM      30.09S
HOUMA*         MOSUNNY   66  63  88 NE6       30.06R
PORT FOURCHON* SUNNY     75  61  60 E8        30.07R

$$

MSZ070-080>082-201500-
SOUTHERN MISSISSIPPI

CITY           SKY/WX    TMP DP  RH WIND       PRES   REMARKS
MCCOMB         SUNNY     60  48  64 CALM      30.09R
GULFPORT       SUNNY     61  51  70 N5        30.07R
BILOXI         SUNNY     60  51  74 NE6       30.07R
PASCAGOULA     SUNNY     59  53  80 N6        30.07R

$$

COASTAL OBSERVATIONS
LAKE AND NEARSHORE STATIONS

STATION/POSITION TIME  TEMP    WIND        PRES    WAVE
                       AIR SEA DIR/SP/G            HT/PER
                 (UTC) (F)     (DEG/KT/KT) (MB)    (FT/S)
PASCAGOULA       1400   62      30/  5/  8 1017.5
WAVELAND YACHT   1400   61      40/  6/  7 1017.5
GRAND ISLE       1400   72 78   50/  6/  9 1017.9
SOUTHWEST PASS   1400   77 84              1017.3
NEW CANAL        1400   68 72   60/ 10/ 11 1018.0
SHELL BEACH      1400   69 69   40/ 10/ 11 1017.4

OFFSHORE STATIONS

STATION/POSITION TIME  TEMP    WIND        PRES    WAVE
                       AIR SEA DIR/SP/G            HT/PER
                 (UTC) (F)     (DEG/KT/KT) (MB)    (FT/S)
64 S DAUPHIN ISL 1320   75 80  100/  8/ 10 1017.7    2/ 5

$$




USA.gov is the U.S. government's official web portal to all federal, state and local government web resources and services.